{"data":{"norad_id":51124,"epoch":"2026-09-20T04:17:30.734016Z","epoch_age_seconds":76155,"freshness":"FRESH","line1":"1 51124U 22005W   26263.17882794 -.00000351  00000+0  73236-6 0  9993","line2":"2 51124  53.1599 139.0973 0000661  84.6652 275.4426 15.34386079258194","mean_motion":15.34386079,"eccentricity":6.61e-5,"inclination_deg":53.1599,"raan_deg":139.0973,"arg_perigee_deg":84.6652,"mean_anomaly_deg":275.4426,"bstar":7.3236e-7,"rev_number":25819,"period_min":93.848609532386,"perigee_km":462.29243439079,"apogee_km":463.19679894051,"semimajor_km":6840.8816166656,"source":"CELESTRAK","updated_at":"2026-09-20T09:00:39.587475Z"}}